Eau Claire, WI

5:15 AM CDT on September 20, 2017 (GMT -0500)
Chippewa Valley Regional

Weather History for KEAU - July, 2013

Change the Weather History Date:

Friday, July 26, 2013

  Actual Average Record
Temperature  
Mean Temperature 62 °F 71 °F  
Max Temperature 74 °F 83 °F 100 °F (1955)
Min Temperature 50 °F 60 °F 45 °F (1962)
Degree Days  
Heating Degree Days 3 1  
Month to date heating degree days 6 6  
Since 1 June heating degree days 69 68  
Since 1 July heating degree days 6 6  
Cooling Degree Days 0 7  
Month to date cooling degree days 234 181  
Year to date cooling degree days 356 333  
Since 1 June cooling degree days 324 301  
Growing Degree Days 12 (Base 50)    
Moisture  
Dew Point 57 °F    
Average Humidity 71    
Maximum Humidity 93    
Minimum Humidity 49    
Precipitation  
Precipitation 0.01 in 0.13 in 3.17 in (1947)
Month to date precipitation 0.56 3.23  
Year to date precipitation 26.47 17.00  
Snow  
Snow 0.00 in 0.00 in 0.00 in ()
Month to date snowfall 0.0 0.0  
Since 1 June snowfall 0.0 0.0  
Since 1 July snowfall 0.0 0.0  
Snow Depth 0.00 in    
Sea Level Pressure  
Sea Level Pressure 29.93 in    
Wind  
Wind Speed 10 mph (NW)    
Max Wind Speed 22 mph    
Max Gust Speed 29 mph    
Visibility 10 miles    
Events Rain    
T = Trace of Precipitation, MM = Missing Value Source: NWS Daily Summary

Daily Weather History Graph

Daily Weather History Graph

Search for Another Location

Airport or City:

Trip Planner

Search our weather history database for the weather conditions in past years. The results will help you decide how hot, cold, wet, or windy it might be!

Date:

Astronomy

Jul. 26, 2013 Rise Set
Actual Time 5:45 AM CDT 8:38 PM CDT
Civil Twilight 5:10 AM CDT 9:13 PM CDT
Nautical Twilight 4:27 AM CDT 9:56 PM CDT
Astronomical Twilight 3:35 AM CDT 10:48 PM CDT
Moon 10:37 PM CDT (7/26) 10:36 AM CDT (7/26)
Length of Visible Light 16h 02m
Length of Day
14h 53m
Waning Gibbous, 80% of the Moon is Illuminated
Jul 26
Waning Gibbous
Jul 29
Last Quarter
Aug 6
New
Aug 14
First Quarter
Aug 20
Full

Hourly Weather History & Observations

Time (CDT) Temp. Dew Point Humidity Pressure Visibility Wind Dir Wind Speed Gust Speed Precip Events Conditions
12:11 AM 66.2 °F 62.6 °F 88% 29.93 in 10.0 mi Calm Calm - N/A   Overcast
12:56 AM 66.0 °F 62.1 °F 87% 29.91 in 10.0 mi South 9.2 mph - N/A   Mostly Cloudy
1:52 AM 64.4 °F 62.6 °F 94% 29.92 in 10.0 mi Calm Calm - N/A   Overcast
1:56 AM 64.9 °F 62.1 °F 90% 29.91 in 10.0 mi Calm Calm - N/A   Overcast
2:31 AM 64.4 °F 62.6 °F 94% 29.91 in 10.0 mi Calm Calm - N/A   Overcast
2:56 AM 64.9 °F 63.0 °F 93% 29.89 in 10.0 mi Calm Calm - N/A   Overcast
3:56 AM 64.9 °F 63.0 °F 93% 29.88 in 10.0 mi SSW 5.8 mph - N/A   Overcast
4:56 AM 64.9 °F 63.0 °F 93% 29.87 in 10.0 mi SSW 4.6 mph - N/A   Mostly Cloudy
5:56 AM 64.0 °F 62.1 °F 93% 29.87 in 10.0 mi SSW 5.8 mph - N/A   Overcast
6:56 AM 64.9 °F 63.0 °F 93% 29.88 in 10.0 mi SW 5.8 mph - N/A   Overcast
7:12 AM 64.4 °F 62.6 °F 94% 29.89 in 10.0 mi WSW 4.6 mph - N/A   Overcast
7:38 AM 66.2 °F 62.6 °F 88% 29.89 in 10.0 mi West 4.6 mph - N/A   Mostly Cloudy
7:47 AM 66.2 °F 64.4 °F 94% 29.89 in 10.0 mi West 6.9 mph - N/A   Mostly Cloudy
7:56 AM 66.9 °F 63.0 °F 87% 29.88 in 10.0 mi West 8.1 mph - N/A   Partly Cloudy
8:56 AM 69.1 °F 60.1 °F 73% 29.88 in 10.0 mi NW 11.5 mph - N/A   Partly Cloudy
9:56 AM 68.0 °F 57.0 °F 68% 29.89 in 10.0 mi WNW 12.7 mph - N/A   Partly Cloudy
10:56 AM 71.1 °F 54.0 °F 55% 29.89 in 10.0 mi NW 12.7 mph 21.9 mph N/A   Mostly Cloudy
11:56 AM 71.1 °F 53.1 °F 53% 29.90 in 10.0 mi WNW 16.1 mph - N/A   Mostly Cloudy
12:56 PM 72.0 °F 51.1 °F 48% 29.89 in 10.0 mi West 17.3 mph 27.6 mph N/A   Mostly Cloudy
1:56 PM 71.1 °F 52.0 °F 51% 29.89 in 10.0 mi WNW 13.8 mph 27.6 mph N/A   Mostly Cloudy
2:56 PM 72.0 °F 51.1 °F 48% 29.89 in 10.0 mi West 15.0 mph - N/A   Scattered Clouds
3:56 PM 71.1 °F 55.9 °F 59% 29.89 in 10.0 mi NNW 12.7 mph - 0.00 in   Mostly Cloudy
4:44 PM 66.2 °F 59.0 °F 78% 29.91 in 9.0 mi NNW 10.4 mph - 0.00 in Rain Light Rain
4:56 PM 69.1 °F 59.0 °F 70% 29.91 in 10.0 mi NW 12.7 mph 20.7 mph 0.00 in   Mostly Cloudy
5:56 PM 66.0 °F 54.0 °F 65% 29.95 in 10.0 mi North 12.7 mph 18.4 mph N/A   Overcast
6:56 PM 64.0 °F 51.1 °F 63% 29.97 in 10.0 mi North 12.7 mph 20.7 mph N/A   Overcast
7:56 PM 60.1 °F 54.0 °F 80% 29.99 in 10.0 mi NNW 11.5 mph - 0.00 in   Overcast
8:13 PM 57.2 °F 53.6 °F 88% 30.00 in 6.0 mi North 13.8 mph 20.7 mph 0.01 in Rain Light Rain
8:32 PM 55.4 °F 55.4 °F 100% 30.01 in 5.0 mi NNW 11.5 mph 18.4 mph 0.01 in Rain Light Rain
8:56 PM 55.9 °F 52.0 °F 87% 30.01 in 10.0 mi North 10.4 mph 19.6 mph 0.01 in   Overcast
9:56 PM 55.0 °F 51.1 °F 86% 30.02 in 10.0 mi NNW 8.1 mph - N/A   Overcast
10:25 PM 55.4 °F 50.0 °F 82% 30.03 in 10.0 mi NNW 8.1 mph - N/A   Overcast
10:56 PM 54.0 °F 50.0 °F 86% 30.03 in 10.0 mi NNW 6.9 mph - N/A   Overcast
11:20 PM 53.6 °F 48.2 °F 82% 30.02 in 10.0 mi NNW 5.8 mph - N/A   Mostly Cloudy
11:56 PM 52.0 °F 48.0 °F 86% 30.02 in 10.0 mi North 6.9 mph - N/A   Scattered Clouds